DELTA 1 DEB, 48086

Orbit data source: Space-Track

DELTA 1 DEB, 48086 is space debris in SSO originally from a launch on Tue, 06 Nov 1973 UTC launched from the Air Force Western Test Range (AFWTR). Debris objects in space refer to the collection of defunct objects orbiting the Earth. Examples of debris include non-operational satellites, rocket bodies, and fragments generated from explosions, collisions, or faulty payload assembly.

Loading next visibility...
Identifier
48086, 1973-086JG
Orbit
SSO
Country
Flag of USUS
Related business
Manufacturer
Unknown
Mission
Spacecraft
Bus & Motor
Unknown
Mass
Unknown
Launch date (UTC)
1973-11-06 (53 years ago)
Launch vehicle
Unknown
Launch site
Air Force Western Test Range (AFWTR)
Object type
Payload
Rocket body
Debris
Shape & HBR
Unknown shape, 0.1 m
Radar Cross Section
Medium (>0.1 m² and <1 m²)

Expand to show TLE details & history
Last TLE update: 1 month ago

TLE from 1 month ago
0 DELTA 1 DEB
1 48086U 73086JG  26222.55619288  .00000762  00000-0  23217-2 0  9990
2 48086 101.4483 339.0519 0260660 345.5896  13.7871 12.99434950585224
Epoch: 2026-08-10T13:20Z
TLE epoch observation values (Epoch: 2026-08-10T13:20:55.064Z)
Latitude
-0.00007°
Longitude
179.78534°
Altitude
1,073.766 km
Speed
7.407 km/s
True Right ascension
22h 36m 12s
True Declination
0° 00' 00"
Sunlit
Object was in full shadow at epoch
Visualization orbit readout
Latitude
Unknown
Longitude
Unknown
Altitude
Unknown
Speed
Unknown
Apparent Right ascension
Unknown
Apparent Declination
Unknown
Sunlit
N/A
Visualization observer readout
Local Sidereal Time
18:55:45
Azimuth
Unknown
Elevation
Unknown
Doppler factor
Unknown
Orbital elements
Apogee altitude
1,460.909 km
Perigee altitude
1,062.625 km
Semi-major axis
7,639.904 km
Eccentricity
0.02607
Inclination
101.4483°
RAAN
339.0519°
Arg. of periapsis
345.5896°
True anomaly
14.52214°
Mean anomaly
13.7871°
Eccentric anomaly
14.15225°
Mean motion
3.25021 °/min
Orbital period
110.76 mins
BSTAR
0.0023217
Loading maneuver chart data...
Computing Atmospheric mass density...
Loading historical data...
Loading historical data...
Loading historical data...
Loading historical data...
Loading historical data...
Loading historical data...
Loading historical data...

Documentation

Showing up to 5 results
|